sat.trackr.live / text

‹ back to catalog

SUPERBIRD-B3

NORAD 43271 · 2018-033A

PAYLOAD ACTIVE UNKNOWN

§ Identity

Operator
Country
JPN
Launch date
2018-04-05
Launch site
FRGUI
Launch vehicle
Mass (kg)
RCS (m²)

Purposes: comms

External: N2YO · Heavens-Above · Gunter

§ Orbital elements

Epoch: 2026-05-25T04:54:38.767104Z

Period
1,436.11 min
Inclination
0.0151°
Eccentricity
0.0001047
Mean motion
1.00271115 rev/d
Perigee alt
35,782.4 km
Apogee alt
35,791.2 km
Semi-major
42,164.9 km
B*
0.0000e+0
RAAN
289.6233°
Arg perigee
147.3248°
Mean anomaly
41.5076°
Rev number
2,983

§ Raw data

SUPERBIRD-B31 43271U 18033A   26145.20461536 -.00000094  00000+0  00000+0 0  99992 43271   0.0151 289.6233 0001047 147.3248  41.5076  1.00271115 29833

JSON: /api/v1/satellites/43271 · /tle

For live sub-satellite position, see the globe view (requires WebGL).

§ Visibility from observer

Set your observer location to see the next 7 days of passes ≥ 10°. The values pass through the URL so the page stays shareable.

No JS? Fill the form by hand. The geolocation button needs JavaScript.